Regional Weather Roundup
Issued by NWS

Home | Current Version | Previous Version | Text Only | Print | Product List | Glossary Off
Versions: 1 2 3 4 5 6 7 8 9 10 11 12 13 14 15 16 17 18 19 20 21 22 23 24 25 26 27

000
ASUS45 KSLC 260410
RWRUT

UTAH REGIONAL WEATHER ROUNDUP
NATIONAL WEATHER SERVICE SALT LAKE CITY UT
1000 PM MDT TUE JUL 25 2017

UTZ001>011-023>025-260500-

NORTHERN UTAH

CITY           SKY/WX    TMP DP  RH WIND       PRES   REMARKS
BRIGHAM CITY   PTCLDY    76  51  40 SE3       30.09R
HILL AFB       PTCLDY    74  56  53 SE9       30.12R
LOGAN          PTCLDY    75  55  49 CALM      30.09R
OGDEN          CLEAR     76  58  53 S8        30.08R
SALT LAKE CITY MOCLDY    80  59  48 S9        30.08R
TOOELE VALLEY  MOCLDY    73  59  60 S7        30.10R
WENDOVER       LGT RAIN  73  59  61 W23       30.10R
HEBER CITY     CLOUDY    63  57  82 CALM      30.19R
WEST JORDAN    PTCLDY    72  65  77 S8        30.13R

$$

UTZ011>015-024>027-260500-

CENTRAL/NORTHEAST UTAH

CITY           SKY/WX    TMP DP  RH WIND       PRES   REMARKS
PROVO AIRPORT  PTCLDY    72  64  78 CALM      30.14R HAZE
MOAB/CANYONLAN MOCLDY    70  67  90 SE5       30.13R
DELTA          PTCLDY    70  54  56 NE5       30.13R
PRICE          CLOUDY    65  63  93 W3        30.22R
RICHFIELD      CLEAR     64  64 100 CALM      30.21R
ROOSEVELT      PTCLDY    68  63  83 CALM      30.21R
VERNAL         CLOUDY    65  62  90 SW5       30.18R

$$

UTZ013>016-019>022-027-260500-

SOUTHERN UTAH

CITY           SKY/WX    TMP DP  RH WIND       PRES   REMARKS
BRYCE CANYON   CLOUDY    60  56  86 CALM      30.36R
CEDAR CITY     CLEAR     64  61  90 S12       30.23R
MILFORD        PTCLDY    72  60  66 S16       30.16R
ST GEORGE      MOCLDY    78  68  71 SW6       30.10R
HANKSVILLE     CLEAR     72  64  78 CALM      30.15R
KANAB          CLEAR     64  63  94 S2        30.26R
BLANDING       CLEAR     65  61  87 NE5       30.31R

$$

REGIONAL REPORTS     COLORADO/ARIZONA

CITY           SKY/WX    TMP DP  RH WIND       PRES   REMARKS
CRAIG, CO      HVY RAIN  64  61  90 S7        30.26R FOG
GRAND JUNCTION CLOUDY    70  64  81 E10       30.16R
RIFLE, CO      CLOUDY    72  58  61 S7        30.20R
MONTROSE, CO   LGT RAIN  67  63  87 SW8       30.23F
CORTEZ, CO     CLOUDY    64  60  87 N6        30.24S
COLORADO CITY    N/A     68  64  88 CALM      30.24R
PAGE, AZ       CLEAR     75  61  61 N8        30.13R
GRAND CANYON   CLEAR     57  56  96 CALM      30.33R
KINGMAN, AZ    CLEAR     69  67  93 NE5       30.12R
FLAGSTAFF, AZ  MOCLDY    59  59 100 CALM      30.35R

$$

REGIONAL REPORTS    NEVADA/IDAHO/WYOMING

CITY           SKY/WX    TMP DP  RH WIND       PRES   REMARKS
LAS VEGAS, NV  PTCLDY    81  68  64 E9        30.00S
ELY, NY        LGT RAIN  60  58  92 MISG      30.29F
ELKO, NV       CLOUDY    72  52  49 S7        30.14R
POCATELLO, ID  CLEAR     71  50  47 CALM      30.09R
BURLEY, ID     MOCLDY    71  58  63 CALM      30.04R
FORT BRIDGER,    N/A     66  51  58 SW9       30.30R
EVANSTON, WY   CLOUDY    63  55  75 CALM      30.29R
ROCK SPRINGS,  LGT RAIN  61  54  77 NE14G23   30.30R
KEMMERER, WY     N/A    N/A N/A N/A N8        30.30R

$$




USA.gov is the U.S. government's official web portal to all federal, state and local government web resources and services.